Home   Weather   Garden Grove   Past weeks

Flag for USA Past Weather in Garden Grove, California, USA — Yesterday and Last 2 Weeks

Now
52 °F

Overcast.


Feels Like: 52 °F
Forecast: 47 / 55 °F
Wind: 3 mph from East

Location: Fullerton Municipal Airport

Current Time: Feb 26, 2017 at 11:42:38 pm

Latest Report: Feb 26, 2017 at 10:53 pm


Visibility: 10 mi

Pressure: 29.97 "Hg

Humidity: 80%

Dew Point: 46 °F

Location of Garden GroveLocation

Past Weather in Garden Grove — Graph

°F

Garden Grove Temperature Yesterday

Maximum temperature yesterday: 62 °F (at 12:53 pm)
Minimum temperature yesterday: 41 °F (at 4:53 am)
Average temperature yesterday: 53 °F

High & Low Weather Summary for the Past Weeks

 TemperatureHumidityPressure
High82 °F (Feb 15, 1:53 pm)100% (Feb 15, 4:53 am)30.33 "Hg (Feb 15, 4:53 am)
Low40 °F (Feb 24, 4:53 am)20% (Feb 15, 12:53 pm)29.45 "Hg (Feb 17, 4:53 pm)
Average57 °F74%29.99 "Hg
* Reported Feb 11 9:53 pm — Feb 26 9:53 pm, Garden Grove, Weather by CustomWeather, © 2017

Note: Actual official high and low records may vary slightly from our data, if they occured in-between our weather recording intervals... More about our weather records

Advertising

Garden Grove Weather History for the Previous 24 Hours

Scroll right to see more
 ConditionsComfort  
Time TempWeatherWind HumidityBarometerVisibility
9:53 pm
Sun, Feb 26
53 °FOvercast.3 mph77%29.97 "Hg10 mi
8:53 pm53 °FPassing clouds.5 mph74%29.97 "Hg10 mi
7:53 pm53 °FClear.3 mph74%29.97 "Hg10 mi
6:53 pm53 °FClear.3 mph74%29.96 "Hg10 mi
6:00 pm54 °FPassing clouds.5 mph69%29.96 "Hg10 mi
4:53 pm56 °FPartly sunny.6 mph70%29.94 "Hg10 mi
3:53 pm55 °FPartly sunny.6 mph77%29.94 "Hg10 mi
3:15 pm57 °FBroken clouds.9 mph74%29.94 "Hg10 mi
2:36 pm57 °FBroken clouds.8 mph72%29.94 "Hg10 mi
1:53 pm55 °FLight rain. Mostly cloudy.6 mph83%29.95 "Hg4 mi
1:15 pm56 °FLight rain. Cloudy.6 mph81%29.96 "Hg10 mi
12:53 pm56 °FLight rain. Cloudy.7 mph84%29.96 "Hg10 mi
12:34 pm55 °FPartly sunny.3 mph80%29.98 "Hg10 mi
11:53 am55 °FPartly sunny.No wind77%30.00 "Hg10 mi
11:29 am54 °FLight rain. More clouds than sun.No wind83%30.01 "Hg10 mi
10:53 am54 °FLight rain. Mostly cloudy.No wind77%30.02 "Hg7 mi
9:53 am55 °FOvercast.6 mph72%30.01 "Hg10 mi
8:53 am53 °FLight rain. Mostly cloudy.9 mph74%30.01 "Hg10 mi
7:53 am51 °FOvercast.7 mph80%30.01 "Hg10 mi
6:53 am49 °FLight rain. Mostly cloudy.6 mph86%29.99 "Hg10 mi
5:53 am50 °FLight rain. Overcast.No wind80%29.99 "Hg10 mi
4:53 am50 °FLight rain. Overcast.No wind86%29.98 "Hg10 mi
3:53 am52 °FOvercast.3 mph75%29.98 "Hg10 mi
2:53 am52 °FMostly cloudy.3 mph75%29.98 "Hg10 mi
1:53 am52 °FPartly cloudy.No wind75%29.98 "Hg10 mi
12:53 am52 °FOvercast.No wind75%30.01 "Hg10 mi
11:53 pm
Sat, Feb 25
53 °FOvercast.No wind69%30.01 "Hg10 mi
Weather by CustomWeather, © 2017

See weather overviewHow to use our weather pages